Weather reports worldwide

Advertisment
Ioannina, Greece (16642): temperature & dewpoint: 12.10.2018 04:00:00 - 18.10.2018 04:00:00 (EEST)Ioannina, Greece (16642): reduced air pressure: 12.10.2018 04:00:00 - 18.10.2018 04:00:00 (EEST)Ioannina, Greece (16642): visibility: 12.10.2018 04:00:00 - 18.10.2018 04:00:00 (EEST)
Date & Time tt [°C] td [°C] ppp [hPa] vv [km]
18.10.2018 04:00:00 - - - -
18.10.2018 03:00:00 - - - -
18.10.2018 02:00:00 - - - -
18.10.2018 01:00:00 - - - -
18.10.2018 00:00:00 - - - -
17.10.2018 23:00:00 - - - -
17.10.2018 22:00:00 16,0 12,0 - 10
17.10.2018 21:00:00 17,2 11,8 1016,0 10
17.10.2018 20:00:00 19,0 12,0 - 10
17.10.2018 19:00:00 21,0 10,0 - 10
17.10.2018 18:00:00 22,0 8,5 1014,3 10
17.10.2018 17:00:00 - - - -
17.10.2018 16:00:00 - - - -
17.10.2018 15:00:00 22,0 5,3 1015,3 10
17.10.2018 14:00:00 20,0 5,0 - 10
17.10.2018 13:00:00 19,0 8,0 - 10
17.10.2018 12:00:00 17,0 9,4 1018,2 10
17.10.2018 11:00:00 15,0 10,0 - 10
17.10.2018 10:00:00 11,0 9,0 - 10
17.10.2018 09:00:00 8,0 7,1 1021,4 9
17.10.2018 08:00:00 - - - -
17.10.2018 07:00:00 - - - -
17.10.2018 06:00:00 - - - -
17.10.2018 05:00:00 - - - -
17.10.2018 04:00:00 - - - -
17.10.2018 03:00:00 - - - -
17.10.2018 02:00:00 - - - -
17.10.2018 01:00:00 - - - -
17.10.2018 00:00:00 - - - -
16.10.2018 23:00:00 - - - -
16.10.2018 22:00:00 14,0 12,0 - 10
16.10.2018 21:00:00 16,4 13,2 1020,7 10
16.10.2018 20:00:00 18,0 14,0 - 10
16.10.2018 19:00:00 20,0 13,0 - 10
16.10.2018 18:00:00 22,4 13,1 1018,0 10
16.10.2018 17:00:00 - - - -
16.10.2018 16:00:00 - - - -
16.10.2018 15:00:00 22,6 8,8 1018,9 10
16.10.2018 14:00:00 21,0 8,0 - 10
16.10.2018 13:00:00 21,0 9,0 - 10
16.10.2018 12:00:00 20,0 9,6 1020,2 10
16.10.2018 11:00:00 15,0 8,0 - 10
16.10.2018 10:00:00 12,0 8,0 - 10
16.10.2018 09:00:00 9,4 7,3 1022,5 10
16.10.2018 08:00:00 9,0 9,0 - 10
16.10.2018 07:00:00 - - - -
16.10.2018 06:00:00 - - - -
16.10.2018 05:00:00 - - - -
16.10.2018 04:00:00 - - - -
16.10.2018 03:00:00 - - - -
16.10.2018 02:00:00 - - - -
16.10.2018 01:00:00 - - - -
16.10.2018 00:00:00 - - - -
15.10.2018 23:00:00 - - - -
15.10.2018 22:00:00 - - - -
15.10.2018 21:00:00 17,0 9,4 1019,1 10
15.10.2018 20:00:00 18,0 9,0 - 10
15.10.2018 19:00:00 20,0 11,0 - 10
15.10.2018 18:00:00 22,6 10,3 1017,3 10
15.10.2018 17:00:00 23,0 10,0 - 10
15.10.2018 16:00:00 - - - -
15.10.2018 15:00:00 24,0 11,7 1017,3 10
15.10.2018 14:00:00 22,0 9,0 - 10
15.10.2018 13:00:00 19,0 8,0 - 10
15.10.2018 12:00:00 15,4 7,4 1019,8 10
15.10.2018 11:00:00 11,0 6,0 - 10
15.10.2018 10:00:00 10,0 6,0 - 10
15.10.2018 09:00:00 8,6 6,5 1021,1 10
15.10.2018 08:00:00 8,0 7,0 - 10
15.10.2018 07:00:00 - - - -
15.10.2018 06:00:00 - - - -
15.10.2018 05:00:00 - - - -
15.10.2018 04:00:00 - - - -
15.10.2018 03:00:00 - - - -
15.10.2018 02:00:00 - - - -
15.10.2018 01:00:00 - - - -
15.10.2018 00:00:00 - - - -
14.10.2018 23:00:00 - - - -
14.10.2018 22:00:00 15,0 8,0 - 10
14.10.2018 21:00:00 16,0 8,2 1020,0 10
14.10.2018 20:00:00 17,0 7,0 - 10
14.10.2018 19:00:00 18,0 7,0 - 10
14.10.2018 18:00:00 20,0 8,6 1017,8 10
14.10.2018 17:00:00 - - - -
14.10.2018 16:00:00 - - - -
14.10.2018 15:00:00 24,2 9,2 1017,6 10
14.10.2018 14:00:00 23,0 9,0 - 10
14.10.2018 13:00:00 22,0 9,0 - 10
14.10.2018 12:00:00 21,8 8,2 1019,6 10
14.10.2018 11:00:00 18,0 7,0 - 10
14.10.2018 10:00:00 16,0 8,0 - 10
14.10.2018 09:00:00 13,0 6,8 1021,3 10
14.10.2018 08:00:00 13,0 7,0 - 10
14.10.2018 07:00:00 - - - -
14.10.2018 06:00:00 - - - -
14.10.2018 05:00:00 - - - -
14.10.2018 04:00:00 - - - -
14.10.2018 03:00:00 - - - -
14.10.2018 02:00:00 - - - -
14.10.2018 01:00:00 - - - -
14.10.2018 00:00:00 - - - -
13.10.2018 23:00:00 - - - -
13.10.2018 22:00:00 - - - -
13.10.2018 21:00:00 18,8 7,0 1020,6 10
13.10.2018 20:00:00 19,0 7,0 - 10
13.10.2018 19:00:00 20,0 8,0 - 10
13.10.2018 18:00:00 21,2 7,8 1019,4 10
13.10.2018 17:00:00 23,0 7,0 - 10
13.10.2018 16:00:00 - - - -
13.10.2018 15:00:00 22,2 6,2 1020,2 10
13.10.2018 14:00:00 22,0 6,0 - 10
13.10.2018 13:00:00 22,0 6,0 - 10
13.10.2018 12:00:00 20,6 8,0 1021,4 10
13.10.2018 11:00:00 20,0 9,0 - 10
13.10.2018 10:00:00 18,0 10,0 - 10
13.10.2018 09:00:00 18,0 8,4 1021,3 10
13.10.2018 08:00:00 17,0 7,0 - 10
13.10.2018 07:00:00 - - - -
13.10.2018 06:00:00 - - - -
13.10.2018 05:00:00 - - - -
13.10.2018 04:00:00 - - - -
13.10.2018 03:00:00 - - - -
13.10.2018 02:00:00 - - - -
13.10.2018 01:00:00 - - - -
13.10.2018 00:00:00 - - - -
12.10.2018 23:00:00 - - - -
12.10.2018 22:00:00 16,0 12,0 - 10
12.10.2018 21:00:00 17,4 13,2 1021,5 10
12.10.2018 20:00:00 18,0 11,0 - 10
12.10.2018 19:00:00 20,0 9,0 - 10
12.10.2018 18:00:00 21,0 7,6 1020,5 10
12.10.2018 17:00:00 - - - -
12.10.2018 16:00:00 - - - -
12.10.2018 15:00:00 21,0 6,0 1020,5 10
12.10.2018 14:00:00 20,0 6,0 - 10
12.10.2018 13:00:00 18,0 5,0 - 10
12.10.2018 12:00:00 16,8 6,3 1022,3 10
12.10.2018 11:00:00 16,0 7,0 - 10
12.10.2018 10:00:00 12,0 8,0 - 10
12.10.2018 09:00:00 9,2 7,5 1023,9 10
12.10.2018 08:00:00 9,0 8,0 - 10
12.10.2018 07:00:00 - - - -
12.10.2018 06:00:00 - - - -
12.10.2018 05:00:00 - - - -
12.10.2018 04:00:00 - - - -

tt = temperature
td = dewpoint
ppp = reduced air pressure
vv = visibility

Next stations